COSMOS 1275 DEB, 42143

Orbit data source: Space-Track

COSMOS 1275 DEB, 42143 is space debris in LEO originally from a launch on Thu, 04 Jun 1981 UTC launched from the Plesetsk Missile And Space Complex (PKMTR). Debris objects in space refer to the collection of defunct objects orbiting the Earth. Examples of debris include non-operational satellites, rocket bodies, and fragments generated from explosions, collisions, or faulty payload assembly.

Loading next visibility...
Identifier
42143, 1981-053RF
Orbit
LEO
Country
Flag of CISCIS
Related business
Manufacturer
Unknown
Mission
Spacecraft
Bus & Motor
Unknown
Mass
Unknown
Launch date (UTC)
1981-06-04 (44 years ago)
Launch vehicle
Unknown
Launch site
Plesetsk Missile And Space Complex (PKMTR)
Object type
Payload
Rocket body
Debris
Shape & HBR
Unknown shape, 0.1 m
Radar Cross Section
Small (<0.1 m²)

Expand to show TLE details & history
Last TLE update: 1 week ago

TLE from 1 week ago
0 COSMOS 1275 DEB
1 42143U 81053RF  25286.98770216  .00001637  00000-0  15008-2 0  9997
2 42143  83.0181  11.3588 0093603 352.1354   7.8331 13.80459177596914
Epoch: 2025-10-13T23:42Z
TLE epoch observation values (Epoch: 2025-10-13T23:42:17.466Z)
Latitude
-0.00006°
Longitude
-6.99658°
Altitude
897.1 km
Speed
7.438 km/s
True Right ascension
00h 45m 26s
True Declination
0° 00' 00"
Sunlit
Object was in full shadow at epoch
Visualization orbit readout
Latitude
Unknown
Longitude
Unknown
Altitude
Unknown
Speed
Unknown
Apparent Right ascension
Unknown
Apparent Declination
Unknown
Sunlit
N/A
Visualization observer readout
Local Sidereal Time
06:59:16
Azimuth
Unknown
Elevation
Unknown
Doppler factor
Unknown
Orbital elements
Apogee altitude
1,028.078 km
Perigee altitude
890.715 km
Semi-major axis
7,337.534 km
Eccentricity
0.00936
Inclination
83.0181°
RAAN
11.3588°
Arg. of periapsis
352.1354°
True anomaly
7.981°
Mean anomaly
7.8331°
Eccentric anomaly
7.90688°
Mean motion
3.45317 °/min
Orbital period
104.25 mins
BSTAR
0.0015008

Documentation

Showing up to 5 results
|